This is the latest recevied weather packets stored in our database for station/object W5DRO-13. If no packets are shown the sender has not sent any weather packets the latest 10 day(s).
| Time | Temp. | Humidity | Pressure | Rain* | Wind** | Luminosity | Snow |
|---|---|---|---|---|---|---|---|
| 1777229691 | 29.44° C | 63% | 1005.6 hPa | 0 mm | - | - | - |
| 1777229388 | 30° C | 63% | 1006 hPa | 0 mm | - | - | - |
| 1777229085 | 28.89° C | 65% | 1005.9 hPa | 0 mm | - | - | - |
| 1777228783 | 29.44° C | 64% | 1006.2 hPa | 0 mm | - | - | - |
| 1777228477 | 28.89° C | 65% | 1006.2 hPa | 0 mm | - | - | - |
| 1777228173 | 28.89° C | 65% | 1006.2 hPa | 0 mm | - | - | - |
| 1777227873 | 28.89° C | 67% | 1006 hPa | 0 mm | - | - | - |
| 1777227569 | 28.33° C | 67% | 1006.1 hPa | 0 mm | - | - | - |
| 1777227265 | 28.89° C | 66% | 1006.4 hPa | 0 mm | - | - | - |
| 1777226962 | 29.44° C | 64% | 1006.4 hPa | 0 mm | - | - | - |
| 1777226660 | 29.44° C | 63% | 1006.4 hPa | 0 mm | - | - | - |
| 1777226357 | 29.44° C | 63% | 1006.3 hPa | 0 mm | - | - | - |
| 1777226052 | 28.89° C | 65% | 1006.5 hPa | 0 mm | - | - | - |
| 1777225749 | 29.44° C | 64% | 1006.5 hPa | 0 mm | - | - | - |
| 1777225446 | 29.44° C | 64% | 1006.6 hPa | 0 mm | - | - | - |
| 1777225143 | 28.89° C | 63% | 1006.7 hPa | 0 mm | - | - | - |
| 1777224839 | 29.44° C | 63% | 1006.7 hPa | 0 mm | - | - | - |
| 1777224534 | 29.44° C | 64% | 1006.8 hPa | 0 mm | - | - | - |
| 1777224230 | 29.44° C | 63% | 1006.9 hPa | 0 mm | - | - | - |
| 1777223927 | 28.89° C | 61% | 1007.1 hPa | 0 mm | - | - | - |
| 1777223624 | 28.89° C | 63% | 1007.1 hPa | 0 mm | - | - | - |
| 1777223320 | 28.89° C | 63% | 1007.4 hPa | 0 mm | - | - | - |
| 1777223018 | 28.33° C | 62% | 1007.5 hPa | 0 mm | - | - | - |
| 1777222715 | 28.33° C | 65% | 1007.5 hPa | 0 mm | - | - | - |
| 1777222412 | 27.78° C | 64% | 1007.4 hPa | 0 mm | - | - | - |
* Rain latest hour (hover to see other rain measurements)
** Current wind speed in m/s (hover to see current wind gust speed)